Location: Laverne
(36.7100°N, 99.8930°W)
Time: 02:34:47
(UTC-06:00)

EO 1 Del DPAF - Pass Details

Date: 19 October 2017
Orbit: 526 x 529 km, 98.1° (Epoch: 17 November)

Event Time Altitude Azimuth Distance (km) Brightness Sun altitude
Rises 06:40:47 0° 164° (SSE) 2,651 7.0 -14.8°
Reaches altitude 10° 06:42:52 10° 164° (SSE) 1,767 6.1 -14.4°
Maximum altitude 06:46:41 83° 77° (ENE) 539 3.3 -13.6°
Drops below altitude 10° 06:50:32 10° 349° (N) 1,784 5.8 -12.8°
Sets 06:52:39 0° 349° (N) 2,679 6.7 -12.4°
